Location: ??????????
(54.8537°N, 38.8755°E)
Time: 02:25:41
(UTC+00:00)

Vanguard 2 Rocket - Pass Details

Date: 18 September 2024
Orbit: 553 x 3298 km, 32.9° (Epoch: 14 October)

Event Time Altitude Azimuth Distance (km) Brightness Sun altitude
Exits shadow 01:55:12 11° 241° (WSW) 4,634 9.8 -10.4°
Maximum altitude 02:05:42 27° 191° (SSW) 4,274 10.1 -8.9°
Drops below altitude 10° 02:19:53 10° 144° (SE) 6,182 11.4 -7.0°
Sets 02:26:01 0° 134° (SE) 7,273 12.0 -6.1°
